Wind_Speed
10 10 10 10 9 9 9 10 10 10 10 10 10 10 10 9 9 10 10 10 9 9 10 10 10 10 10 10 10 10 9 10 10 10 10 10 9 10 10 10 10 11 12
11 11 10 10 10 10 11 11 11 11 11 10 10 10 9 10 10 10 10 10 10 10 10 10 11 10 10 10 10 10 10 10 10 10 10 10 10 10 10 11 11 11 12
12 12 12 12 11 10 11 11 11 11 12 11 11 10 10 10 10 10 10 10 10 10 10 10 10 11 10 10 10 10 10 10 10 9 9 9 10 10 10 11 12 13 13
12 12 13 13 12 11 12 12 11 11 12 12 11 10 10 11 11 11 10 10 10 10 10 10 10 10 10 9 9 10 10 10 10 10 10 10 10 10 11 12 12 13 13
13 14 14 13 13 12 12 13 12 12 12 12 11 11 11 11 11 11 11 11 10 10 10 10 10 10 9 9 10 10 10 10 10 10 10 10 11 11 12 12 13 13 13
14 14 14 13 12 12 13 12 12 13 12 12 12 12 12 11 11 11 11 10 10 10 10 10 10 10 9 9 9 10 10 10 10 10 10 10 10 11 12 12 12 13 13
15 14 14 13 13 13 13 12 13 13 12 12 12 12 12 11 11 11 11 10 10 10 10 10 10 10 10 10 10 10 10 10 10 10 10 11 11 11 12 12 12 13 12
14 14 13 13 13 13 13 13 13 13 13 13 12 12 12 11 12 11 11 11 11 11 11 11 10 11 10 10 11 11 11 11 10 10 11 11 11 11 12 12 12 13 13
14 13 13 13 13 13 13 14 14 14 14 13 13 12 12 11 12 12 12 12 12 12 12 12 12 11 11 11 11 11 11 11 11 11 11 11 11 12 12 12 12 12 13
13 13 12 12 13 13 13 13 14 13 13 13 13 13 13 13 13 13 13 13 13 13 13 13 12 12 11 11 11 11 12 12 12 12 11 11 12 12 12 12 12 12 12
13 13 12 13 13 13 13 13 13 13 14 14 14 13 13 14 14 14 14 14 14 14 13 13 13 12 12 11 11 12 12 13 12 12 12 12 12 11 11 12 12 12 13
13 13 13 13 13 13 13 13 13 13 13 14 14 13 14 14 15 15 14 14 14 14 14 13 13 13 13 13 13 13 13 13 13 13 13 13 12 12 12 12 13 13 14
13 13 13 13 13 13 13 14 13 13 13 13 13 14 14 14 14 15 15 15 14 14 14 14 14 14 14 13 13 14 14 14 14 13 14 13 13 13 13 13 14 15 15
14 14 13 13 13 13 13 14 14 13 13 13 14 14 14 14 14 15 15 15 15 15 15 14 15 15 15 14 14 14 14 14 14 13 14 14 14 15 15 15 16 16 16
14 14 13 13 14 14 14 14 14 13 14 14 15 15 15 15 14 15 15 16 16 16 15 15 16 16 15 15 14 14 14 14 13 14 14 15 16 16 17 17 17 17 17
15 15 15 15 15 15 15 16 15 15 15 15 15 15 15 15 14 15 15 15 16 16 16 16 16 16 16 15 15 14 14 14 15 15 15 16 16 17 17 17 17 18 18
16 16 16 15 15 16 16 15 15 16 16 16 16 16 16 15 15 15 15 15 15 15 15 15 15 15 15 15 16 16 16 15 16 16 17 17 17 18 18 18 19 19 20
16 16 16 15 15 16 16 16 15 16 16 16 16 17 16 16 15 15 15 15 15 15 15 15 14 15 15 16 16 17 16 16 16 17 18 18 18 19 19 20 20 21 22
17 16 16 16 16 16 16 16 16 16 16 16 17 17 16 16 15 15 16 16 15 15 14 14 14 15 16 16 16 16 16 17 17 18 18 18 19 19 20 21 22 22 23
16 16 16 16 16 16 17 17 16 16 16 16 16 16 15 16 16 15 15 15 15 15 15 15 15 15 15 16 16 16 17 17 17 18 19 19 20 21 21 22 23 24 24
16 16 16 16 17 17 17 17 16 16 16 16 16 15 15 16 16 15 15 15 14 15 15 16 16 15 15 15 16 17 17 18 18 19 19 20 21 21 22 22 23 23 24
16 16 16 16 16 17 17 17 16 15 14 15 15 15 16 16 16 16 16 16 15 16 16 16 16 16 16 16 17 17 17 18 19 19 20 20 21 22 23 23 24 24 25
15 16 16 16 16 17 16 16 16 17 16 16 16 16 16 16 17 17 17 17 17 16 16 16 16 16 16 17 17 18 19 20 20 20 21 22 22 23 24 24 24 25 26
16 16 16 16 16 16 16 16 17 17 17 16 16 17 17 17 17 16 16 16 15 16 16 16 17 17 17 18 18 19 20 21 22 22 22 23 23 24 25 25 25 26 26
16 16 16 15 16 16 15 16 16 16 16 17 17 17 17 17 17 16 16 16 16 16 17 17 17 17 18 19 19 20 21 22 22 22 23 24 25 25 25 25 26 27 28
16 15 15 15 16 16 16 16 16 16 16 17 17 17 16 17 17 17 18 17 17 17 18 18 18 18 19 20 21 22 22 22 22 23 24 25 26 26 26 27 28 28 29
Wind_Direction
278 277 276 281 284 287 291 294 297 302 302 300 300 302 306 307 306 305 303 300 299 300 303 305 303 297 295 297 295 292 291 289 287 284 282 281 282 281 278 278 278 279 278
278 275 277 279 284 288 290 292 295 300 301 298 298 300 302 304 304 304 303 300 299 299 302 301 301 298 295 299 295 292 290 288 288 286 283 281 281 282 281 280 280 279 278
277 274 273 277 283 289 289 292 296 299 301 299 296 297 300 303 304 302 301 303 305 303 302 299 299 300 296 295 294 294 294 291 291 288 285 283 282 282 283 282 281 280 276
277 276 276 278 282 285 287 291 295 298 300 300 297 297 300 301 301 300 299 300 302 305 304 300 301 302 301 298 299 300 300 295 294 293 290 287 285 282 283 284 285 283 278
278 278 280 278 280 283 286 289 292 295 297 298 297 296 297 297 298 299 300 303 301 300 300 300 302 303 303 302 302 304 302 299 296 294 292 289 287 285 284 285 286 286 281
276 280 279 276 279 281 285 287 292 294 293 293 292 291 295 294 293 297 301 302 302 301 299 298 299 300 300 303 301 302 305 304 300 297 295 292 289 288 287 287 287 287 285
277 278 277 277 278 280 281 286 291 290 290 291 292 290 291 293 294 295 299 299 300 299 299 298 297 297 299 301 300 299 301 302 302 301 298 294 291 290 288 286 287 288 286
277 278 278 277 277 278 282 285 286 287 287 288 291 290 290 291 292 292 295 296 296 297 297 297 294 293 295 298 300 295 297 299 302 302 300 295 293 293 290 286 286 286 285
276 278 276 275 277 278 281 283 284 284 285 286 287 290 291 290 290 291 293 294 295 294 292 292 292 291 292 295 299 297 297 300 299 299 299 298 295 294 292 289 288 288 287
280 280 279 278 278 280 283 284 284 283 285 286 286 286 287 287 289 290 292 293 292 290 290 290 289 288 289 292 296 295 295 298 298 296 298 297 296 295 293 293 294 290 289
279 279 276 277 277 279 281 283 282 283 285 285 284 284 285 285 286 289 292 291 289 288 288 287 288 286 287 289 291 293 293 293 295 294 297 298 295 295 295 297 296 294 291
276 279 278 277 279 280 281 283 283 284 286 285 285 285 285 286 287 288 288 288 287 287 285 284 286 287 289 288 288 291 293 294 295 295 294 296 296 293 293 294 295 295 293
274 275 277 278 279 280 281 284 283 284 285 286 286 287 287 287 287 287 286 286 286 285 283 282 283 285 288 290 290 292 294 295 297 297 294 292 293 292 290 291 294 293 293
275 275 275 278 278 281 283 285 284 283 282 284 286 289 288 289 286 287 286 286 285 284 283 281 281 282 285 287 288 290 292 294 295 297 297 294 292 291 291 292 293 293 292
276 279 279 277 278 279 282 284 285 283 283 285 286 288 289 289 288 288 286 286 285 283 280 280 279 279 281 285 287 288 290 292 293 293 292 293 293 292 292 292 292 292 291
275 277 278 280 280 278 281 282 280 281 281 284 287 287 287 287 290 289 288 286 287 285 283 283 281 280 280 281 284 287 287 290 291 292 293 294 295 296 294 293 293 293 293
276 276 277 280 281 280 282 281 279 280 282 283 284 285 285 286 287 288 290 290 287 286 284 285 283 283 281 279 281 284 288 290 291 294 295 295 295 295 296 294 294 295 296
276 275 274 277 280 282 280 279 279 279 281 281 283 284 284 285 285 286 289 290 288 287 284 285 284 284 283 281 282 286 289 291 293 294 296 296 296 296 296 295 294 294 294
274 274 272 273 277 279 278 279 279 280 284 285 284 284 283 285 285 286 288 287 288 287 284 281 284 286 286 283 282 285 287 290 292 293 295 296 296 296 296 296 295 294 295
272 271 271 273 277 276 276 279 282 285 287 284 285 286 283 283 284 285 286 286 288 288 284 283 284 286 283 283 283 285 287 289 291 293 295 297 297 297 297 297 296 296 297
272 271 270 272 276 277 278 280 282 284 283 285 286 286 286 287 286 287 287 286 286 288 287 287 286 287 286 287 286 286 286 289 291 294 296 298 300 300 300 299 299 299 299
273 273 272 273 275 278 277 279 280 283 285 287 288 288 286 285 284 283 284 284 283 284 286 287 287 288 289 290 291 291 291 292 294 296 298 299 299 301 301 301 301 300 299
272 272 275 275 275 276 277 279 280 283 283 287 286 286 285 285 283 281 281 284 283 283 286 288 287 287 289 290 291 293 294 295 296 297 297 299 299 300 301 301 301 301 301
270 272 275 274 273 274 277 278 280 281 283 285 286 284 287 284 280 277 279 282 283 284 287 289 288 288 289 289 290 293 295 296 296 296 297 299 300 301 302 302 302 302 302
271 272 273 274 275 277 278 279 281 283 283 286 288 287 287 286 285 279 277 278 280 283 286 290 291 289 289 291 293 294 296 297 297 297 297 299 300 301 301 302 302 303 303
271 271 271 274 275 276 278 280 283 287 287 288 289 289 288 287 286 284 281 279 279 280 283 288 290 289 291 294 295 296 296 297 297 298 301 301 301 300 301 302 302 303 303
Height
5879 5879 5879 5879 5879 5879 5879 5878 5878 5877 5877 5876 5875 5875 5874 5873 5872 5872 5871 5870 5870 5869 5868 5867 5867 5867 5866 5866 5865 5865 5864 5864 5863 5863 5863 5863 5863 5863 5863 5862 5862 5862 5862
5877 5877 5877 5877 5877 5877 5877 5876 5876 5875 5875 5874 5873 5873 5872 5871 5871 5870 5869 5868 5868 5867 5867 5866 5865 5865 5864 5863 5863 5863 5862 5862 5861 5861 5861 5860 5860 5860 5860 5860 5860 5860 5860
5874 5875 5875 5875 5875 5875 5875 5874 5874 5873 5873 5872 5871 5871 5870 5869 5869 5868 5868 5867 5866 5865 5865 5864 5863 5863 5862 5862 5861 5860 5860 5860 5859 5859 5858 5858 5858 5858 5858 5858 5858 5858 5857
5872 5872 5872 5872 5872 5873 5873 5872 5872 5871 5871 5870 5869 5869 5868 5868 5867 5866 5866 5865 5864 5864 5863 5862 5861 5861 5860 5859 5859 5858 5858 5857 5857 5856 5856 5856 5856 5856 5855 5855 5855 5855 5854
5870 5870 5870 5870 5870 5870 5870 5870 5869 5869 5868 5868 5867 5867 5866 5865 5865 5864 5864 5863 5862 5862 5861 5860 5859 5859 5858 5857 5857 5856 5856 5855 5855 5854 5854 5853 5853 5853 5853 5852 5852 5852 5851
5867 5867 5867 5867 5867 5868 5868 5867 5867 5866 5866 5865 5865 5864 5864 5863 5863 5862 5862 5861 5861 5860 5859 5858 5857 5857 5856 5856 5855 5854 5854 5853 5852 5852 5851 5851 5850 5850 5850 5849 5849 5849 5849
5865 5865 5865 5864 5865 5865 5865 5865 5864 5864 5863 5863 5862 5862 5862 5861 5860 5860 5859 5859 5858 5858 5857 5856 5855 5855 5854 5853 5853 5852 5851 5851 5850 5849 5848 5848 5847 5847 5847 5846 5846 5846 5846
5862 5862 5862 5862 5862 5862 5862 5862 5861 5861 5861 5860 5860 5859 5859 5859 5858 5857 5857 5856 5856 5855 5855 5854 5853 5852 5852 5851 5850 5850 5849 5849 5848 5847 5846 5845 5845 5845 5844 5844 5843 5843 5843
5859 5859 5859 5859 5859 5859 5859 5859 5858 5858 5858 5857 5857 5857 5856 5856 5856 5855 5854 5854 5853 5852 5852 5851 5850 5850 5849 5848 5848 5847 5847 5846 5845 5844 5844 5843 5842 5842 5841 5841 5840 5840 5839
5856 5856 5856 5856 5856 5856 5856 5855 5855 5855 5855 5854 5854 5853 5853 5853 5853 5852 5852 5851 5850 5849 5849 5848 5847 5847 5846 5846 5845 5845 5844 5843 5842 5842 5841 5840 5840 5839 5838 5838 5837 5837 5836
5852 5853 5853 5853 5853 5853 5852 5852 5852 5852 5851 5851 5851 5850 5850 5850 5849 5849 5848 5848 5847 5846 5845 5845 5844 5844 5843 5843 5842 5842 5841 5840 5840 5839 5838 5837 5837 5836 5835 5835 5834 5834 5833
5849 5849 5849 5850 5850 5849 5849 5849 5848 5848 5848 5848 5847 5847 5847 5847 5846 5845 5845 5844 5843 5843 5842 5841 5841 5840 5840 5840 5839 5838 5838 5837 5836 5836 5835 5835 5834 5833 5832 5832 5831 5830 5830
5846 5846 5846 5846 5846 5846 5846 5846 5845 5845 5845 5844 5844 5844 5843 5843 5842 5842 5841 5840 5840 5839 5838 5838 5837 5837 5836 5836 5835 5835 5834 5834 5833 5833 5832 5831 5830 5830 5829 5828 5828 5827 5826
5843 5843 5843 5843 5843 5843 5843 5842 5842 5841 5841 5841 5841 5840 5840 5839 5839 5838 5837 5836 5836 5835 5834 5834 5833 5833 5833 5832 5832 5831 5831 5830 5830 5829 5828 5828 5827 5826 5825 5825 5824 5823 5822
5839 5839 5839 5839 5840 5839 5839 5839 5839 5838 5838 5837 5837 5836 5836 5836 5835 5834 5833 5832 5832 5831 5830 5830 5829 5828 5828 5828 5828 5828 5827 5826 5826 5825 5825 5824 5823 5822 5821 5820 5819 5818 5817
5835 5836 5836 5836 5836 5836 5836 5835 5835 5835 5834 5834 5833 5833 5832 5832 5831 5830 5829 5828 5827 5827 5826 5825 5824 5824 5824 5824 5824 5823 5823 5822 5822 5821 5820 5819 5818 5817 5816 5815 5814 5813 5812
5831 5832 5832 5832 5832 5832 5832 5831 5831 5831 5830 5830 5829 5829 5828 5828 5827 5826 5825 5824 5823 5823 5822 5821 5820 5820 5819 5819 5819 5819 5819 5818 5817 5817 5816 5815 5814 5813 5812 5811 5809 5808 5807
5827 5828 5828 5828 5828 5828 5828 5827 5827 5827 5826 5826 5825 5825 5824 5823 5823 5822 5822 5821 5820 5819 5818 5817 5816 5816 5815 5815 5815 5815 5815 5814 5813 5812 5811 5810 5809 5808 5807 5806 5804 5803 5802
5823 5824 5824 5824 5824 5824 5824 5823 5823 5822 5822 5822 5821 5820 5820 5819 5819 5818 5817 5817 5816 5815 5814 5813 5813 5812 5812 5811 5811 5811 5810 5809 5809 5808 5807 5806 5804 5803 5802 5800 5799 5797 5795
5819 5819 5819 5820 5820 5820 5820 5819 5819 5818 5818 5817 5817 5816 5815 5815 5814 5814 5813 5812 5812 5811 5810 5809 5809 5809 5808 5807 5807 5806 5806 5805 5804 5803 5802 5801 5799 5797 5796 5794 5793 5791 5789
5815 5815 5815 5816 5816 5816 5815 5815 5815 5814 5814 5813 5812 5812 5811 5810 5810 5810 5809 5808 5808 5807 5806 5806 5805 5805 5804 5803 5803 5802 5801 5800 5799 5798 5797 5795 5794 5792 5790 5788 5786 5784 5782
5810 5811 5811 5811 5811 5811 5811 5810 5810 5810 5809 5809 5808 5808 5807 5806 5806 5805 5804 5804 5804 5803 5802 5802 5801 5801 5800 5799 5798 5797 5796 5796 5794 5793 5792 5790 5788 5786 5784 5782 5780 5777 5775
5806 5807 5807 5807 5807 5807 5806 5806 5806 5806 5805 5805 5804 5804 5803 5802 5801 5801 5800 5800 5799 5799 5798 5798 5797 5796 5795 5795 5794 5793 5792 5790 5789 5787 5786 5784 5782 5780 5778 5775 5773 5770 5768
5802 5802 5802 5803 5803 5803 5802 5802 5802 5801 5801 5801 5800 5799 5798 5797 5797 5796 5796 5795 5795 5794 5794 5793 5792 5792 5791 5790 5789 5788 5787 5785 5783 5782 5780 5778 5776 5773 5771 5768 5765 5763 5760
5798 5798 5798 5798 5798 5798 5798 5798 5798 5797 5797 5796 5795 5795 5794 5793 5792 5792 5791 5791 5791 5790 5789 5789 5788 5787 5786 5785 5784 5783 5781 5780 5778 5776 5773 5771 5769 5767 5764 5761 5758 5755 5752
5794 5794 5794 5794 5794 5794 5794 5794 5793 5793 5792 5791 5791 5790 5789 5788 5788 5787 5787 5786 5786 5786 5785 5784 5783 5782 5781 5780 5778 5777 5775 5773 5771 5769 5767 5765 5762 5759 5757 5754 5751 5748 5744